TimeAKST,TemperatureF,Dew PointF,Humidity,Sea Level PressureIn,VisibilityMPH,Wind Direction,Wind SpeedMPH,Gust SpeedMPH,PrecipitationIn,Events,Conditions,WindDirDegrees,DateUTC
12:53 AM,30.0,21.0,69,29.50,10.0,WNW,10.4,-,N/A,,Clear,300,2013-03-01 09:53:00
1:53 AM,30.0,21.9,72,29.52,10.0,NW,9.2,-,N/A,,Clear,310,2013-03-01 10:53:00
3:53 AM,28.9,19.0,67,29.56,10.0,SW,4.6,-,N/A,,Partly Cloudy,230,2013-03-01 12:53:00
4:53 AM,27.0,19.0,72,29.58,10.0,Calm,Calm,-,N/A,,Clear,0,2013-03-01 13:53:00
5:53 AM,28.0,18.0,66,29.60,10.0,West,4.6,-,N/A,,Scattered Clouds,270,2013-03-01 14:53:00
6:53 AM,23.0,18.0,81,29.61,10.0,West,6.9,-,N/A,,Scattered Clouds,280,2013-03-01 15:53:00
7:53 AM,23.0,19.0,85,29.63,10.0,WNW,6.9,-,N/A,,Scattered Clouds,300,2013-03-01 16:53:00
8:53 AM,25.0,19.9,81,29.66,10.0,Calm,Calm,-,N/A,,Scattered Clouds,0,2013-03-01 17:53:00
9:53 AM,30.0,19.9,66,29.68,10.0,West,5.8,-,N/A,,Scattered Clouds,280,2013-03-01 18:53:00
10:53 AM,32.0,21.0,64,29.70,10.0,Calm,Calm,-,N/A,,Scattered Clouds,0,2013-03-01 19:53:00
11:53 AM,36.0,21.0,55,29.72,10.0,Calm,Calm,-,N/A,,Scattered Clouds,0,2013-03-01 20:53:00
12:53 PM,36.0,21.9,57,29.74,10.0,SSE,3.5,-,N/A,,Scattered Clouds,160,2013-03-01 21:53:00
1:53 PM,37.0,19.0,48,29.75,10.0,SSW,3.5,-,N/A,,Scattered Clouds,200,2013-03-01 22:53:00
2:53 PM,37.9,19.9,48,29.77,10.0,Calm,Calm,-,N/A,,Scattered Clouds,0,2013-03-01 23:53:00
3:53 PM,37.9,21.0,51,29.79,10.0,West,3.5,-,N/A,,Partly Cloudy,260,2013-03-02 00:53:00
4:53 PM,37.9,23.0,55,29.81,10.0,Calm,Calm,-,N/A,,Partly Cloudy,0,2013-03-02 01:53:00
5:53 PM,36.0,19.9,52,29.82,10.0,NNW,3.5,-,N/A,,Scattered Clouds,330,2013-03-02 02:53:00
6:53 PM,30.0,21.0,69,29.84,10.0,West,6.9,-,N/A,,Scattered Clouds,270,2013-03-02 03:53:00
7:53 PM,28.0,21.0,75,29.86,10.0,West,4.6,-,N/A,,Partly Cloudy,270,2013-03-02 04:53:00
8:53 PM,26.1,21.0,81,29.88,10.0,West,3.5,-,N/A,,Partly Cloudy,260,2013-03-02 05:53:00
9:53 PM,26.1,21.0,81,29.89,10.0,West,4.6,-,N/A,,Partly Cloudy,280,2013-03-02 06:53:00
10:53 PM,25.0,21.0,85,29.91,10.0,West,3.5,-,N/A,,Partly Cloudy,260,2013-03-02 07:53:00
11:53 PM,26.1,21.0,81,29.93,10.0,WSW,6.9,-,N/A,,Scattered Clouds,250,2013-03-02 08:53:00